| time (UTC) | temp F | wind direction | speed MPH | gust MPH | rain 1hr in | rain 24hr in | rain mn in | humidity % | barometer mb |
| 20260902034110 | 55 | 344 | 5.0 | 6.0 | 0.00 | 0.00 | 0.00 | 68 | 1022.5 |
| 20260902033110 | 54 | 309 | 2.0 | 3.0 | 0.00 | 0.00 | 0.00 | 68 | 1022.5 |
| 20260902032110 | 55 | 309 | 2.0 | 3.0 | 0.00 | 0.00 | 0.00 | 68 | 1022.4 |
| 20260902031110 | 55 | 309 | 2.0 | 3.0 | 0.00 | 0.00 | 0.00 | 67 | 1022.5 |
| 20260902030110 | 55 | 309 | 3.0 | 5.0 | 0.00 | 0.00 | 0.00 | 67 | 1022.6 |
| 20260902025110 | 55 | 300 | 0.0 | 0.0 | 0.00 | 0.01 | 0.00 | 67 | 1022.4 |
| 20260902024110 | 55 | 300 | 0.0 | 0.0 | 0.00 | 0.01 | 0.00 | 67 | 1022.4 |
| 20260902023110 | 55 | 300 | 0.0 | 0.0 | 0.00 | 0.01 | 0.00 | 67 | 1022.5 |
| 20260902022110 | 55 | 300 | 2.0 | 5.0 | 0.00 | 0.01 | 0.00 | 66 | 1022.5 |
| 20260902021111 | 56 | 298 | 4.0 | 4.0 | 0.00 | 0.01 | 0.00 | 66 | 1022.5 |
| 20260902020110 | 56 | 295 | 3.0 | 4.0 | 0.00 | 0.01 | 0.00 | 66 | 1022.3 |
| 20260902015110 | 56 | 273 | 1.0 | 2.0 | 0.00 | 0.01 | 0.00 | 66 | 1022.3 |
| 20260902014110 | 56 | 273 | 0.0 | 0.0 | 0.00 | 0.01 | 0.00 | 65 | 1022.4 |
| 20260902013110 | 56 | 273 | 0.0 | 1.0 | 0.00 | 0.01 | 0.00 | 64 | 1022.6 |
| 20260902012110 | 57 | 273 | 1.0 | 3.0 | 0.00 | 0.01 | 0.00 | 64 | 1022.7 |
| 20260902011110 | 57 | 332 | 1.0 | 3.0 | 0.00 | 0.01 | 0.00 | 64 | 1022.5 |
| 20260902010110 | 57 | 332 | 2.0 | 3.0 | 0.00 | 0.01 | 0.00 | 63 | 1022.5 |
| 20260902005109 | 57 | 332 | 3.0 | 5.0 | 0.00 | 0.01 | 0.00 | 63 | 1022.4 |
| 20260902004110 | 57 | 338 | 4.0 | 5.0 | 0.00 | 0.01 | 0.00 | 63 | 1022.3 |
| 20260902003110 | 57 | 326 | 4.0 | 5.0 | 0.00 | 0.01 | 0.00 | 63 | 1022.4 |
| 20260902002109 | 57 | 327 | 4.0 | 5.0 | 0.00 | 0.01 | 0.00 | 62 | 1022.5 |
| 20260902001109 | 57 | 327 | 3.0 | 5.0 | 0.00 | 0.01 | 0.00 | 63 | 1022.7 |
| 20260902000109 | 58 | 328 | 2.0 | 4.0 | 0.00 | 0.01 | 0.00 | 62 | 1022.7 |
| 20260901235109 | 58 | 327 | 2.0 | 3.0 | 0.00 | 0.01 | 0.00 | 61 | 1022.6 |
| 20260901234109 | 58 | 327 | 2.0 | 5.0 | 0.00 | 0.01 | 0.00 | 60 | 1022.6 |
| 20260901233109 | 59 | 338 | 4.0 | 5.0 | 0.00 | 0.01 | 0.00 | 59 | 1022.7 |
| 20260901232109 | 59 | 336 | 3.0 | 6.0 | 0.00 | 0.01 | 0.00 | 59 | 1022.6 |
| 20260901231109 | 59 | 338 | 3.0 | 5.0 | 0.00 | 0.01 | 0.00 | 59 | 1022.5 |
| 20260901230109 | 59 | 346 | 4.0 | 6.0 | 0.00 | 0.01 | 0.00 | 59 | 1022.6 |
| 20260901225109 | 59 | 322 | 4.0 | 5.0 | 0.00 | 0.01 | 0.00 | 58 | 1022.6 |
| 20260901224109 | 59 | 308 | 2.0 | 3.0 | 0.00 | 0.01 | 0.00 | 58 | 1022.6 |
| 20260901223109 | 59 | 308 | 3.0 | 5.0 | 0.00 | 0.01 | 0.00 | 57 | 1022.5 |
| 20260901222109 | 60 | 298 | 0.0 | 0.0 | 0.00 | 0.01 | 0.00 | 57 | 1022.6 |
| 20260901221109 | 60 | 298 | 3.0 | 4.0 | 0.00 | 0.01 | 0.00 | 56 | 1022.6 |
| 20260901220109 | 60 | 308 | 3.0 | 4.0 | 0.00 | 0.01 | 0.00 | 56 | 1022.5 |
| 20260901215109 | 60 | 307 | 3.0 | 4.0 | 0.00 | 0.03 | 0.03 | 54 | 1022.5 |
| 20260901214109 | 61 | 342 | 3.0 | 4.0 | 0.00 | 0.03 | 0.03 | 54 | 1022.5 |
| 20260901213114 | 61 | 328 | 2.0 | 4.0 | 0.00 | 0.03 | 0.03 | 54 | 1022.6 |
| 20260901212114 | 61 | 315 | 2.0 | 4.0 | 0.00 | 0.03 | 0.03 | 54 | 1022.3 |
| 20260901211114 | 62 | 316 | 4.0 | 6.0 | 0.00 | 0.03 | 0.03 | 53 | 1022.3 |
| 20260901210114 | 62 | 323 | 2.0 | 3.0 | 0.00 | 0.03 | 0.03 | 52 | 1022.3 |
| 20260901205114 | 63 | 323 | 3.0 | 4.0 | 0.00 | 0.06 | 0.03 | 51 | 1022.4 |
| 20260901204114 | 63 | 338 | 5.0 | 5.0 | 0.00 | 0.06 | 0.03 | 51 | 1022.3 |
| 20260901203114 | 64 | 337 | 3.0 | 5.0 | 0.00 | 0.06 | 0.03 | 51 | 1022.1 |
| 20260901202114 | 64 | 335 | 3.0 | 5.0 | 0.00 | 0.06 | 0.03 | 50 | 1022.1 |
| 20260901201114 | 64 | 319 | 5.0 | 6.0 | 0.00 | 0.06 | 0.03 | 49 | 1022.1 |
| 20260901200114 | 65 | 319 | 3.0 | 5.0 | 0.00 | 0.06 | 0.03 | 49 | 1021.9 |
| 20260901195114 | 65 | 317 | 3.0 | 5.0 | 0.00 | 0.06 | 0.03 | 48 | 1022.0 |
| 20260901194113 | 65 | 323 | 5.0 | 6.0 | 0.00 | 0.06 | 0.03 | 48 | 1022.0 |
| 20260901193114 | 65 | 327 | 5.0 | 6.0 | 0.00 | 0.06 | 0.03 | 47 | 1021.9 |
| 20260901192114 | 65 | 329 | 4.0 | 6.0 | 0.00 | 0.06 | 0.03 | 48 | 1021.7 |
| 20260901191114 | 66 | 323 | 2.0 | 3.0 | 0.00 | 0.06 | 0.03 | 48 | 1021.7 |
| 20260901190113 | 66 | 321 | 3.0 | 4.0 | 0.00 | 0.06 | 0.03 | 47 | 1021.5 |
| 20260901185113 | 66 | 323 | 4.0 | 6.0 | 0.00 | 0.06 | 0.03 | 46 | 1021.4 |
| 20260901184113 | 67 | 333 | 3.0 | 5.0 | 0.00 | 0.06 | 0.03 | 46 | 1021.4 |
| 20260901183113 | 68 | 316 | 3.0 | 4.0 | 0.00 | 0.06 | 0.03 | 47 | 1021.2 |
| 20260901182113 | 68 | 317 | 3.0 | 4.0 | 0.00 | 0.06 | 0.03 | 42 | 1021.1 |
| 20260901181113 | 69 | 317 | 3.0 | 4.0 | 0.00 | 0.06 | 0.03 | 43 | 1021.1 |
| 20260901180113 | 70 | 323 | 0.0 | 0.0 | 0.00 | 0.06 | 0.03 | 42 | 1020.9 |
| 20260901175113 | 72 | 330 | 0.0 | 0.0 | 0.00 | 0.06 | 0.03 | 41 | 1020.6 |
| 20260901174113 | 73 | 355 | 0.0 | 0.0 | 0.00 | 0.06 | 0.03 | 38 | 1020.6 |
| 20260901173113 | 74 | 355 | 0.0 | 0.0 | 0.00 | 0.06 | 0.03 | 35 | 1020.5 |
| 20260901172113 | 76 | 355 | 0.0 | 0.0 | 0.00 | 0.06 | 0.03 | 35 | 1020.7 |
| 20260901171113 | 76 | 351 | 0.0 | 1.0 | 0.00 | 0.06 | 0.03 | 33 | 1020.6 |
| 20260901170113 | 77 | 360 | 2.0 | 5.0 | 0.00 | 0.06 | 0.03 | 31 | 1020.5 |
| 20260901165113 | 77 | 349 | 3.0 | 5.0 | 0.00 | 0.06 | 0.03 | 29 | 1020.4 |
| 20260901164113 | 78 | 5 | 3.0 | 5.0 | 0.00 | 0.06 | 0.03 | 29 | 1020.7 |
| 20260901163113 | 78 | 355 | 4.0 | 8.0 | 0.00 | 0.06 | 0.03 | 28 | 1020.5 |
| 20260901162113 | 79 | 327 | 5.0 | 9.0 | 0.00 | 0.06 | 0.03 | 27 | 1020.8 |
| 20260901161113 | 79 | 345 | 4.0 | 8.0 | 0.00 | 0.06 | 0.03 | 27 | 1020.7 |
| 20260901160113 | 80 | 349 | 9.0 | 11.0 | 0.00 | 0.06 | 0.03 | 26 | 1020.8 |
| 20260901155113 | 81 | 355 | 5.0 | 10.0 | 0.00 | 0.06 | 0.03 | 26 | 1020.6 |
| 20260901154114 | 81 | 360 | 11.0 | 14.0 | 0.00 | 0.06 | 0.03 | 26 | 1020.5 |
| 20260901153113 | 82 | 290 | 9.0 | 13.0 | 0.00 | 0.06 | 0.03 | 26 | 1020.6 |
| 20260901152113 | 83 | 306 | 4.0 | 10.0 | 0.00 | 0.06 | 0.03 | 26 | 1020.7 |
| 20260901151113 | 83 | 281 | 5.0 | 8.0 | 0.00 | 0.06 | 0.03 | 26 | 1020.6 |
| 20260901150113 | 83 | 296 | 8.0 | 11.0 | 0.00 | 0.06 | 0.03 | 26 | 1020.7 |
| 20260901145113 | 83 | 275 | 4.0 | 12.0 | 0.00 | 0.06 | 0.03 | 26 | 1020.8 |
| 20260901144113 | 83 | 277 | 2.0 | 12.0 | 0.00 | 0.06 | 0.03 | 26 | 1020.9 |
| 20260901143113 | 83 | 263 | 9.0 | 11.0 | 0.00 | 0.06 | 0.03 | 27 | 1020.8 |
| 20260901142113 | 82 | 329 | 3.0 | 7.0 | 0.00 | 0.06 | 0.03 | 28 | 1020.8 |
| 20260901141112 | 80 | 327 | 10.0 | 12.0 | 0.00 | 0.06 | 0.03 | 30 | 1020.9 |
| 20260901140112 | 80 | 257 | 5.0 | 10.0 | 0.00 | 0.06 | 0.03 | 28 | 1020.9 |
| 20260901135113 | 81 | 12 | 4.0 | 10.0 | 0.00 | 0.06 | 0.03 | 29 | 1020.9 |
| 20260901134112 | 80 | 338 | 5.0 | 6.0 | 0.00 | 0.06 | 0.03 | 28 | 1020.9 |
| 20260901133112 | 80 | 331 | 4.0 | 9.0 | 0.00 | 0.06 | 0.03 | 30 | 1021.0 |
| 20260901132112 | 80 | 355 | 9.0 | 14.0 | 0.00 | 0.06 | 0.03 | 28 | 1021.1 |
| 20260901131112 | 81 | 314 | 10.0 | 14.0 | 0.00 | 0.06 | 0.03 | 29 | 1021.2 |
| 20260901130112 | 80 | 327 | 7.0 | 15.0 | 0.00 | 0.06 | 0.03 | 29 | 1021.1 |
| 20260901125112 | 80 | 337 | 6.0 | 12.0 | 0.00 | 0.06 | 0.03 | 30 | 1021.0 |
| 20260901124112 | 80 | 251 | 5.0 | 12.0 | 0.00 | 0.06 | 0.03 | 30 | 1021.3 |
| 20260901123112 | 80 | 238 | 12.0 | 16.0 | 0.00 | 0.06 | 0.03 | 29 | 1021.2 |
| 20260901122112 | 80 | 298 | 6.0 | 16.0 | 0.00 | 0.06 | 0.03 | 29 | 1021.4 |
| 20260901121112 | 81 | 274 | 8.0 | 14.0 | 0.00 | 0.06 | 0.03 | 29 | 1021.4 |
| 20260901120112 | 82 | 348 | 8.0 | 17.0 | 0.00 | 0.06 | 0.03 | 29 | 1021.3 |
| 20260901115112 | 81 | 305 | 9.0 | 16.0 | 0.00 | 0.06 | 0.03 | 28 | 1021.6 |
| 20260901114112 | 81 | 257 | 11.0 | 17.0 | 0.00 | 0.06 | 0.03 | 29 | 1021.5 |
| 20260901113112 | 82 | 300 | 9.0 | 17.0 | 0.00 | 0.06 | 0.03 | 28 | 1021.6 |
| 20260901112112 | 80 | 336 | 10.0 | 16.0 | 0.00 | 0.06 | 0.03 | 31 | 1021.5 |
| 20260901111112 | 79 | 308 | 13.0 | 18.0 | 0.00 | 0.06 | 0.03 | 33 | 1021.6 |
| 20260901110112 | 78 | 306 | 8.0 | 13.0 | 0.00 | 0.06 | 0.03 | 34 | 1021.7 |
| 20260901105112 | 78 | 296 | 10.0 | 18.0 | 0.00 | 0.06 | 0.03 | 33 | 1021.8 |
| 20260901104112 | 78 | 349 | 12.0 | 17.0 | 0.00 | 0.06 | 0.03 | 32 | 1021.8 |
| 20260901103112 | 77 | 300 | 6.0 | 18.0 | 0.00 | 0.06 | 0.03 | 33 | 1021.8 |
| 20260901102112 | 77 | 320 | 10.0 | 20.0 | 0.00 | 0.06 | 0.03 | 35 | 1021.8 |
| 20260901101112 | 76 | 306 | 12.0 | 16.0 | 0.00 | 0.06 | 0.03 | 38 | 1021.9 |
| 20260901100112 | 75 | 330 | 4.0 | 7.0 | 0.00 | 0.06 | 0.03 | 41 | 1021.9 |
| 20260901095112 | 76 | 238 | 3.0 | 7.0 | 0.00 | 0.06 | 0.03 | 43 | 1022.0 |
| 20260901094112 | 75 | 316 | 0.0 | 4.0 | 0.00 | 0.06 | 0.03 | 43 | 1022.3 |
| 20260901093112 | 75 | 288 | 4.0 | 5.0 | 0.00 | 0.06 | 0.03 | 42 | 1022.3 |
| 20260901092111 | 76 | 277 | 5.0 | 8.0 | 0.00 | 0.06 | 0.03 | 41 | 1022.3 |
| 20260901091111 | 76 | 355 | 5.0 | 11.0 | 0.00 | 0.06 | 0.03 | 42 | 1022.3 |
| 20260901090111 | 76 | 328 | 10.0 | 13.0 | 0.00 | 0.06 | 0.03 | 45 | 1022.3 |
| 20260901085111 | 76 | 263 | 5.0 | 9.0 | 0.00 | 0.06 | 0.03 | 45 | 1022.4 |
| 20260901084111 | 75 | 257 | 10.0 | 12.0 | 0.00 | 0.06 | 0.03 | 46 | 1022.4 |
| 20260901083111 | 75 | 296 | 6.0 | 11.0 | 0.00 | 0.06 | 0.03 | 47 | 1022.4 |
| 20260901082111 | 75 | 286 | 7.0 | 12.0 | 0.00 | 0.06 | 0.03 | 47 | 1022.3 |
| 20260901081111 | 74 | 277 | 6.0 | 13.0 | 0.00 | 0.06 | 0.03 | 48 | 1022.4 |
| 20260901080111 | 74 | 5 | 4.0 | 11.0 | 0.00 | 0.06 | 0.03 | 48 | 1022.4 |
| 20260901075111 | 73 | 317 | 9.0 | 13.0 | 0.00 | 0.06 | 0.03 | 47 | 1022.2 |
| 20260901074111 | 73 | 257 | 6.0 | 9.0 | 0.00 | 0.06 | 0.03 | 50 | 1022.2 |
| 20260901073111 | 72 | 295 | 5.0 | 14.0 | 0.00 | 0.06 | 0.03 | 51 | 1022.2 |
| 20260901072111 | 71 | 283 | 6.0 | 11.0 | 0.00 | 0.06 | 0.03 | 53 | 1022.0 |
| 20260901071111 | 70 | 301 | 6.0 | 10.0 | 0.00 | 0.06 | 0.03 | 54 | 1021.9 |
| 20260901070111 | 70 | 238 | 5.0 | 15.0 | 0.00 | 0.06 | 0.03 | 54 | 1021.9 |
| 20260901065111 | 69 | 263 | 3.0 | 11.0 | 0.00 | 0.06 | 0.03 | 57 | 1021.8 |
| 20260901064111 | 69 | 266 | 5.0 | 12.0 | 0.00 | 0.06 | 0.03 | 58 | 1021.7 |
| 20260901063111 | 68 | 245 | 10.0 | 14.0 | 0.00 | 0.06 | 0.03 | 59 | 1021.6 |
| 20260901062111 | 67 | 263 | 8.0 | 10.0 | 0.00 | 0.06 | 0.03 | 60 | 1021.6 |
| 20260901061111 | 66 | 259 | 5.0 | 8.0 | 0.00 | 0.06 | 0.03 | 61 | 1021.5 |
| 20260901060111 | 65 | 288 | 4.0 | 10.0 | 0.00 | 0.06 | 0.03 | 62 | 1021.4 |
| 20260901055111 | 65 | 286 | 5.0 | 10.0 | 0.00 | 0.06 | 0.03 | 64 | 1021.5 |
| 20260901054111 | 64 | 292 | 5.0 | 9.0 | 0.00 | 0.06 | 0.03 | 65 | 1021.3 |
| 20260901053111 | 63 | 286 | 5.0 | 11.0 | 0.00 | 0.06 | 0.03 | 67 | 1021.2 |
| 20260901052111 | 62 | 288 | 5.0 | 11.0 | 0.00 | 0.06 | 0.03 | 70 | 1021.1 |
| 20260901051111 | 61 | 296 | 8.0 | 12.0 | 0.00 | 0.06 | 0.03 | 75 | 1020.9 |
| 20260901050111 | 60 | 300 | 6.0 | 11.0 | 0.00 | 0.06 | 0.03 | 79 | 1020.9 |
| 20260901045111 | 60 | 325 | 8.0 | 11.0 | 0.00 | 0.06 | 0.03 | 79 | 1020.8 |
| 20260901044111 | 60 | 306 | 7.0 | 10.0 | 0.00 | 0.06 | 0.03 | 79 | 1020.9 |
| 20260901043111 | 59 | 298 | 8.0 | 10.0 | 0.00 | 0.06 | 0.03 | 79 | 1020.9 |
| 20260901042110 | 59 | 292 | 4.0 | 9.0 | 0.01 | 0.06 | 0.03 | 78 | 1020.7 |
| 20260901041111 | 59 | 275 | 3.0 | 4.0 | 0.01 | 0.06 | 0.03 | 77 | 1020.7 |
| 20260901040110 | 59 | 172 | 3.0 | 5.0 | 0.01 | 0.06 | 0.03 | 77 | 1020.7 |
| 20260901035110 | 59 | 159 | 3.0 | 5.0 | 0.01 | 0.06 | 0.03 | 77 | 1020.4 |